Weather History for Leadville, CO

Change the Weather History Date:

Saturday, April 5, 2014

  Actual Average Record
Temperature  
Mean Temperature 22 °F -  
Max Temperature 34 °F 41 °F 56 °F (1991)
Min Temperature 10 °F 16 °F -9 °F (1983)
Degree Days  
Heating Degree Days 43 37  
Month to date heating degree days 224 186  
Since 1 July heating degree days 9033 9169  
Cooling Degree Days 0 0  
Month to date cooling degree days 0 0  
Year to date cooling degree days 0 0  
Moisture  
Dew Point 17 °F    
Average Humidity 64    
Maximum Humidity 100    
Minimum Humidity 28    
Precipitation  
Precipitation 0.05 in 0.03 in 0.40 in (2007)
Month to date precipitation 0.22 0.16  
Year to date precipitation 6.07 2.42  
Sea Level Pressure  
Sea Level Pressure 29.88 in    
Wind  
Wind Speed 5 mph (North)    
Max Wind Speed 14 mph    
Max Gust Speed 18 mph    
Visibility 6 miles    
Events Fog , Snow    
T = Trace of Precipitation, MM = Missing Value Source: NWS Daily Summary

Daily Weather History Graph

Daily Weather History Graph

Search for Another Location

Airport:

Trip Planner

Search our weather history database for the weather conditions in past years. The results will help you decide how hot, cold, wet, or windy it might be!

Date:

Astronomy

Apr. 05, 2014 Rise Set
Actual Time 6:43 AM MDT 7:33 PM MDT
Civil Twilight 6:16 AM MDT 8:00 PM MDT
Nautical Twilight 5:44 AM MDT 8:32 PM MDT
Astronomical Twilight 5:10 AM MDT 9:05 PM MDT
Moon 10:54 AM MDT (4/5) 12:43 AM MDT (4/5)
Length of Visible Light 13h 44m
Length of Day
12h 49m
Waxing Crescent, 35% of the Moon is Illuminated
Apr 5
Waxing Crescent
Apr 7
First Quarter
Apr 15
Full
Apr 22
Last Quarter
Apr 29
New

Hourly Weather History & Observations

Time (MDT) Temp. Windchill Dew Point Humidity Pressure Visibility Wind Dir Wind Speed Gust Speed Precip Events Conditions
12:53 AM 18.0 °F 8.7 °F 10.0 °F 71% 29.89 in 10.0 mi NE 6.9 mph - N/A   Clear
1:53 AM 16.0 °F 7.4 °F 9.0 °F 74% 29.89 in 10.0 mi NE 5.8 mph - N/A   Overcast
2:53 AM 16.0 °F 10.4 °F 8.1 °F 71% 29.86 in 10.0 mi North 3.5 mph - N/A   Overcast
3:53 AM 18.0 °F 6.9 °F 8.1 °F 65% 29.82 in 10.0 mi NNE 9.2 mph - N/A   Mostly Cloudy
4:53 AM 18.0 °F 9.8 °F 8.1 °F 65% 29.83 in 10.0 mi Variable 5.8 mph - N/A   Partly Cloudy
5:53 AM 14.0 °F - 7.0 °F 74% 29.87 in 10.0 mi Calm Calm - N/A   Clear
6:53 AM 12.0 °F 2.7 °F 7.0 °F 80% 29.89 in 10.0 mi NNE 5.8 mph - N/A   Clear
7:53 AM 18.0 °F 9.8 °F 8.1 °F 65% 29.87 in 10.0 mi NNE 5.8 mph - N/A   Clear
8:53 AM 24.1 °F 19.7 °F 10.0 °F 55% 29.83 in 10.0 mi North 3.5 mph - N/A   Clear
9:53 AM 28.9 °F - 10.0 °F 45% 29.81 in 10.0 mi Calm Calm - N/A   Clear
10:53 AM 30.0 °F 24.1 °F 9.0 °F 41% 29.80 in 10.0 mi South 5.8 mph - N/A   Partly Cloudy
11:53 AM 30.9 °F 25.2 °F 8.1 °F 38% 29.80 in 10.0 mi Variable 5.8 mph - N/A   Overcast
12:53 PM 33.1 °F - 3.9 °F 29% 29.76 in 10.0 mi North - - N/A   Mostly Cloudy
1:53 PM 33.1 °F 28.7 °F 10.0 °F 38% 29.77 in 10.0 mi NNE 4.6 mph - N/A   Overcast
2:53 PM 30.0 °F 21.1 °F 16.0 °F 56% 29.78 in 10.0 mi South 10.4 mph - N/A   Overcast
3:53 PM 32.0 °F 26.4 °F 14.0 °F 48% 29.75 in 10.0 mi North 5.8 mph - N/A   Overcast
4:41 PM 28.0 °F 19.3 °F 21.0 °F 75% 29.89 in 2.5 mi NNW 9.2 mph - 0.00 in Snow Light Snow
4:47 PM 26.6 °F 15.7 °F 21.2 °F 80% 29.90 in 0.8 mi NW 12.7 mph - 0.00 in Snow Light Snow
4:53 PM 25.0 °F 15.5 °F 21.9 °F 88% 29.82 in 0.5 mi NW 9.2 mph - 0.00 in Fog , Snow Light Snow
5:02 PM 25.0 °F 20.7 °F 21.9 °F 88% 29.90 in 1.0 mi WNW 3.5 mph - 0.01 in Snow Light Snow
5:17 PM 27.0 °F 23.0 °F 21.9 °F 81% 29.90 in 3.0 mi Variable 3.5 mph - 0.01 in Snow Light Snow
5:28 PM 28.0 °F - 21.0 °F 75% 29.90 in 10.0 mi Calm Calm - 0.01 in   Overcast
5:53 PM 27.0 °F - 19.0 °F 72% 29.84 in 10.0 mi Calm Calm - 0.01 in   Overcast
6:28 PM 27.0 °F 18.0 °F 21.0 °F 78% 29.92 in 1.5 mi WSW 9.2 mph - 0.00 in Snow Light Snow
6:37 PM 25.0 °F 16.3 °F 23.0 °F 92% 29.92 in 0.5 mi West 8.1 mph - 0.00 in Fog , Snow Snow
6:41 PM 25.0 °F 17.1 °F 23.0 °F 92% 29.92 in 0.2 mi WNW 6.9 mph - 0.00 in Fog , Snow Snow
6:53 PM 25.0 °F 18.1 °F 23.0 °F 92% 29.89 in 0.5 mi NW 5.8 mph - 0.01 in Fog , Snow Light Snow
7:05 PM 25.0 °F 17.1 °F 23.0 °F 92% 29.92 in 0.2 mi North 6.9 mph - 0.01 in Fog , Snow Snow
7:15 PM 25.0 °F 19.3 °F 23.0 °F 92% 29.92 in 0.5 mi NNE 4.6 mph - 0.02 in Fog , Snow Snow
7:23 PM 25.0 °F 15.5 °F 21.9 °F 88% 29.92 in 0.8 mi NNE 9.2 mph - 0.02 in Snow Light Snow
7:40 PM 25.0 °F 18.1 °F 21.0 °F 85% 29.92 in 1.0 mi NNE 5.8 mph - 0.03 in Snow Light Snow
7:45 PM 25.0 °F 19.3 °F 21.0 °F 85% 29.92 in 3.0 mi North 4.6 mph - 0.03 in Snow Light Snow
7:53 PM 25.0 °F 20.7 °F 19.9 °F 81% 29.84 in 8.0 mi North 3.5 mph - 0.03 in   Overcast
8:53 PM 24.1 °F 16.0 °F 19.9 °F 84% 29.85 in 3.0 mi NNW 6.9 mph - 0.00 in Snow Light Snow
8:59 PM 24.1 °F 17.0 °F 19.9 °F 84% 29.96 in 1.8 mi NW 5.8 mph - 0.00 in Snow Light Snow
9:19 PM 23.0 °F 17.0 °F 21.0 °F 92% 29.96 in 3.0 mi West 4.6 mph - 0.00 in Snow Light Snow
9:35 PM 24.1 °F 19.7 °F 21.9 °F 91% 29.97 in 5.0 mi Variable 3.5 mph - 0.00 in Snow Light Snow
9:44 PM 24.1 °F - 21.9 °F 91% 29.97 in 9.0 mi Calm Calm - 0.00 in   Overcast
9:53 PM 24.1 °F - 21.0 °F 88% 29.83 in 10.0 mi Calm Calm - 0.00 in   Overcast
10:35 PM 21.0 °F - 19.0 °F 92% 29.97 in 1.8 mi Calm Calm - N/A   Overcast
10:37 PM 21.0 °F - 19.0 °F 92% 29.97 in 1.2 mi Calm Calm - N/A   Overcast
10:53 PM 19.9 °F 14.9 °F 19.0 °F 96% 29.86 in 3.0 mi NNE 3.5 mph - N/A   Scattered Clouds
11:53 PM 19.0 °F 12.3 °F 16.0 °F 88% 29.86 in 10.0 mi North 4.6 mph - N/A   Scattered Clouds